Location: Hartha
(51.1030°N, 12.9600°E)
Time: 12:01:00
(UTC+02:00)

ISS - Pass Details

Date: 10 July 2022
Orbit: 412 x 420 km, 51.6° (Epoch: 17 August)

Event Time Altitude Azimuth Distance (km) Brightness Sun altitude
Exits shadow 02:27:15 - 267° (W) 1,892 -0.6 -14.9°
Reaches altitude 10° 02:28:13 10° 268° (W) 1,496 -1.2 -14.8°
Maximum altitude 02:31:34 80° 356° (N) 430 -3.7 -14.7°
Drops below altitude 10° 02:34:57 10° 84° (E) 1,503 -0.6 -14.5°
Sets 02:37:04 0° 86° (E) 2,370 0.4 -14.4°
